Regional Weather Roundup
Issued by NWS Albany, NY

Home | Current Version | Previous Version | Graphics & Text | Print | Product List | Glossary On
Versions: 1 2 3 4 5 6 7 8 9 10 11 12 13 14 15 16 17 18 19 20 21 22 23 24 25 26 27
000
ASUS41 KALY 191210
RWRALY

NEW YORK STATE HOURLY WEATHER ROUNDUP
NATIONAL WEATHER SERVICE ALBANY NY
700 AM EST SUN FEB 19 2017

NOTE: "FAIR" INDICATES FEW OR NO CLOUDS BELOW 12,000 FEET WITH NO
SIGNIFICANT WEATHER AND/OR NO OBSTRUCTIONS TO VISIBILITY.

NYZ032-033-038>043-046>054-057>066-NYZ062>081-082-084-191300-
EAST


CITY           SKY/WX    TMP DP  RH WIND       PRES   REMARKS
ALBANY         MOCLDY    33  29  85 CALM      29.74R
GLENS FALLS    CLOUDY    23  20  88 CALM      29.70R
POUGHKEEPSIE   CLEAR     29  27  92 NE3       29.74R
NEWBURGH       PTCLDY    43  36  75 W14       29.75R
MONTGOMERY     CLEAR     29  26  89 CALM      29.75R
WHITE PLAINS   CLOUDY    45  34  65 NW9       29.73R
ISLIP          CLOUDY    41  34  76 CALM      29.74R
NEW YORK CITY  MOCLDY    58  34  40 W9        29.76R
CENTRAL PARK   CLOUDY    56  34  43 W6        29.78R
$$

NYZ005>009-017-018-044>046-055-056-191300-
CENTRAL


CITY           SKY/WX    TMP DP  RH WIND       PRES   REMARKS
FULTON         CLOUDY    42  35  76 W8        29.77R
SYRACUSE       CLOUDY    41  35  79 W12       29.76R
ROME           PTCLDY    22  21  96 CALM      29.77R
ELMIRA         CLOUDY    33  30  88 SW5       29.81R WCI  29
BINGHAMTON     PTCLDY    41  35  79 W8        29.76R
MONTICELLO     CLEAR     41  36  81 NW8       29.76R
$$

NYZ026>034-041>043-087-191300-
NORTH


CITY           SKY/WX    TMP DP  RH WIND       PRES   REMARKS
WATERTOWN      PTCLDY    36  34  92 SW9       29.74R FOG     WCI  29
FORT DRUM      NOT AVBL
OGDENSBURG     FAIR      37  34  92 SW5       29.68R WCI  33
MASSENA        PTCLDY    37  33  85 SW10      29.67R WCI  30
SARANAC LAKE   MOCLDY    34  34 100 SW6       29.63R WCI  29
PLATTSBURGH    CLOUDY    44  34  67 SW7       29.63R
$$

NYZ001>004-010>016-019>021-085-191300-
WEST


CITY           SKY/WX    TMP DP  RH WIND       PRES   REMARKS
NIAGARA FALLS  CLEAR     33  29  85 SW5       29.82R WCI  29
BUFFALO        PTCLDY    35  32  88 SW10      29.84R WCI  27
DUNKIRK        PTCLDY    43  36  76 SW9       29.86R
JAMESTOWN      PTCLDY    39  34  81 SW10      29.85R WCI  32
WELLSVILLE     PTCLDY    44  37  76 W9        29.84R
ROCHESTER      MOCLDY    41  36  82 W8        29.81R
PENN YAN       PTCLDY    40  32  73 CALM      29.80R
$$

             KEY
       WCI = WIND CHILL INDEX
       VSB = VISIBILITY
       HX  = HEAT INDEX
$$




USA.gov is the U.S. government's official web portal to all federal, state and local government web resources and services.